EW4462 Weather Reports


Display with metric or nautical units.
time (UTC)temp
F
wind
direction
speed
MPH
gust
MPH
rain 1hr
in
rain 24hr
in
rain mn
in
humidity
%
barometer
mb
20260509140145 62 22 0.0 0.0 0.00 0.00 0.00 88 1014.5
20260509132439 62 31 0.0 0.0 0.00 0.00 0.00 88 1014.3
20260509130345 62 31 0.0 0.0 0.00 0.00 0.00 88 1014.4
20260509125353 62 31 0.0 0.0 0.00 0.00 0.00 88 1014.2
20260509124404 62 31 0.0 0.0 0.00 0.00 0.00 88 1014.2
20260509123427 62 31 0.0 0.0 0.00 0.00 0.00 88 1014.2
20260509121234 62 30 0.0 0.0 0.00 0.00 0.00 88 1014.0
20260509115035 62 30 0.0 0.0 0.00 0.00 0.00 88 1014.1
20260509112950 62 30 0.0 0.0 0.00 0.00 0.00 88 1014.1
20260509110840 62 29 0.0 0.0 0.00 0.00 0.00 88 1014.0
20260509104707 62 32 0.0 0.0 0.00 0.00 0.00 88 1014.1
20260509103642 62 36 0.0 0.0 0.00 0.00 0.00 88 1014.1
20260509102633 62 78 0.0 0.0 0.00 0.00 0.00 88 1014.3
20260509101611 62 78 0.0 0.0 0.00 0.00 0.00 88 1014.3
20260509100555 62 78 0.0 0.0 0.00 0.00 0.00 87 1014.3
20260509095608 62 78 0.0 0.0 0.00 0.00 0.00 87 1014.3
20260509094626 62 78 0.0 0.0 0.00 0.00 0.00 87 1014.4
20260509092456 62 14 0.0 0.0 0.00 0.00 0.00 87 1014.5
20260509091513 62 14 0.0 0.0 0.00 0.00 0.00 87 1014.6
20260509090502 63 14 0.0 0.0 0.00 0.00 0.00 87 1014.6
20260509085439 63 14 0.0 0.0 0.00 0.00 0.00 87 1014.7
20260509084453 63 14 0.0 0.0 0.00 0.00 0.00 87 1014.8
20260509081156 63 20 0.0 0.0 0.00 0.00 0.00 86 1015.0
20260509080212 63 20 0.0 0.0 0.00 0.00 0.00 86 1015.0
20260509075209 63 20 0.0 0.0 0.00 0.00 0.00 87 1015.2
20260509073046 63 16 0.0 0.0 0.00 0.00 0.00 86 1015.2
20260509072032 63 16 0.0 0.0 0.00 0.00 0.00 86 1015.2
20260509065844 63 29 0.0 0.0 0.00 0.00 0.00 86 1015.5
20260509064809 63 29 0.0 0.0 0.00 0.00 0.00 87 1015.5
20260509063735 63 26 0.0 0.0 0.00 0.00 0.00 86 1015.5
20260509061552 63 140 0.0 0.0 0.00 0.00 0.00 86 1015.6
20260509060526 63 140 0.0 0.0 0.00 0.00 0.00 86 1015.6
20260509055518 63 140 0.0 0.0 0.00 0.00 0.00 85 1015.6
20260509054442 63 140 0.0 0.0 0.00 0.00 0.00 85 1015.6
20260509052323 63 140 0.0 0.0 0.00 0.00 0.00 85 1015.7
20260509051321 63 140 0.0 0.0 0.00 0.00 0.00 86 1015.7
20260509045222 63 140 0.0 0.0 0.00 0.00 0.00 85 1015.7
20260509044217 63 140 0.0 0.0 0.00 0.00 0.00 85 1015.6
20260509042036 63 140 0.0 0.0 0.00 0.00 0.00 85 1015.4
20260509034817 63 145 0.0 0.0 0.00 0.00 0.00 85 1015.3
20260509033814 63 146 0.0 0.0 0.00 0.00 0.00 84 1015.2
20260509032824 63 146 0.0 0.0 0.00 0.00 0.00 84 1015.1
20260509030644 64 144 0.0 0.0 0.00 0.00 0.00 83 1015.0
20260509025707 64 144 0.0 0.0 0.00 0.00 0.00 83 1015.1
20260509024649 64 147 0.0 0.0 0.00 0.00 0.00 83 1014.9
20260509023648 65 153 0.0 0.0 0.00 0.00 0.00 82 1014.8